User: anonymous   Login
Location: Unspecified
(0.0000°N, 0.0000°E)
Time: 21:51:00
(UTC+00:00)
Language:

SeaSat 1 - Orbit

View from above orbital plane
View from above orbital plane
View from above satellite
View from above satellite

Ground track
Ground track

The orbit is defined by the following mean orbital elements,

1 10967U          26150.39408233 +.00000000 +00000-0 +15523-3 0 00001
2 10967 108.0149 296.9407 0002290 243.9259 116.1652 14.46227883    09
Epoch (UTC): 30 May 2026 09:27:28
Eccentricity: 0.0002290
inclination: 108.0149°
perigee height: 736 km
apogee height: 740 km
right ascension of ascending node: 296.9407°
argument of perigee: 243.9259°
revolutions per day: 14.46227883
mean anomaly at epoch: 116.1652°

The dashed part of the orbit path shows where the satellite is in the earth's shadow,  

DLR